www.pogodaiklimat.ru

Погода и климат >> Архив погоды >> Кувейт >> Кувейт Сити


ПОГОДА в Кувейт Сити

  • Прогноз погоды в Кувейт Сити
  • Монитор погоды в Кувейт Сити

АРХИВ ПОГОДЫ в Кувейт Сити

Время (UTC), дата Ветер
(напр.,м/с)
 
Видим.   Явления Облачность Т
(С)
Тd
(С)
f
(%)
Тe
(С)
Тes
(С)
Комфортность P
(гПа)
Po
(гПа)
Тmin
(С)
Tmax
(С)
R
(мм)
R24
(мм)
S
(см)
00 13.08 С 1-2
{4}
н/о н/о +39.2 +4.1 12 +36 +36 очень
жарко
996.0 994.8
03 13.08 СЗ 1-4
{6}
н/о н/о +37.5 +4.5 13 +35 +35 очень
жарко
998.3 997.1
06 13.08 С 3-6
{7}
н/о н/о +40.2 +6.2 13 +38 +38 очень
жарко
999.5 998.3
09 13.08 СВ 3-7
{8}
н/о н/о +43.8 +3.3 9 +41 +41 опасность
перегрева
998.9 997.7
12 13.08 В 2-5
{8}
н/о н/о +40.9 +17.2 25 +43 +43 опасность
перегрева
997.9 996.7
15 13.08 Ю 2-7
{7}
н/о н/о +40.9 +11.0 17 +40 +40 очень
жарко
997.7 996.5
18 13.08 Ю 1-4
{7}
н/о н/о +39.0 +14.4 23 +40 +40 очень
душно
999.4 998.2
21 13.08 Ю 2-4
{6}
н/о н/о +37.7 +17.2 30 +40 +40 очень
душно
999.3 998.1 +37.4 +45.6
00 14.08 СВ 1-2
{6}
н/о н/о +34.3 +23.5 53 +45 +45 опасность
перегрева
998.8 997.6
03 14.08 З 2-5
{5}
н/о н/о +37.1 +5.0 14 +34 +34 очень
жарко
1000.2 999.0
06 14.08 З 2-5
{6}
н/о н/о +39.4 +9.0 16 +38 +38 очень
жарко
1001.4 1000.2
09 14.08 С 3-6
{9}
н/о н/о +46.7 +2.9 7 +43 +43 опасность
перегрева
1000.6 999.4
12 14.08 СЗ 1-4
{9}
н/о н/о +44.5 +8.9 12 +43 +43 опасность
перегрева
999.2 998.0
15 14.08 Ю 2-6
{7}
н/о н/о +43.2 +5.4 10 +40 +40 очень
жарко
998.9 997.7
18 14.08 Ю 3-6
{7}
н/о н/о +41.6 +5.7 11 +39 +39 очень
жарко
1000.4 999.2
21 14.08 В 1-1
{6}
н/о н/о +39.8 +11.0 18 +39 +39 очень
жарко
1000.1 998.9 +33.5 +47.7
00 15.08 СВ 2-2
{6}
н/о н/о +32.6 +31.2 92 +64 +64 опасность
перегрева
1000.6 999.4
03 15.08 З 2-6
{8}
н/о н/о +36.6 +5.9 15 +34 +34 очень
жарко
1001.6 1000.4
06 15.08 С 2-6
{11}
н/о н/о +39.7 +7.9 15 +38 +38 очень
жарко
1002.6 1001.4
09 15.08 С 4-7
{8}
н/о н/о +43.5 +9.6 13 +42 +42 опасность
перегрева
1001.9 1000.7
12 15.08 СВ 4-7
{9}
н/о н/о +46.5 +5.3 9 +44 +44 опасность
перегрева
1000.2 999.0
15 15.08 В 1-5
{7}
н/о н/о +44.0 +7.4 11 +42 +42 опасность
перегрева
999.8 998.6
18 15.08 СЗ 3-6
{7}
н/о н/о +42.5 +4.8 10 +39 +39 очень
жарко
1001.7 1000.5
21 15.08 З 3-7
{8}
н/о н/о +39.4 +6.4 13 +37 +37 очень
жарко
1001.9 1000.7 +32.5 +47.3
00 16.08 Ю 1-4
{9}
н/о н/о +37.6 +4.9 13 +35 +35 очень
жарко
1002.0 1000.8
03 16.08 З 2-7
{9}
н/о н/о +36.5 +2.9 12 +33 +33 жарко 1002.9 1001.7
06 16.08 З 2-7
{9}
н/о н/о +39.9 +7.9 14 +38 +38 очень
жарко
1003.8 1002.6
09 16.08 СЗ 3-9
{11}
н/о н/о +43.7 +5.3 10 +41 +41 опасность
перегрева
1002.5 1001.3
12 16.08 З 2-7
{11}
н/о н/о +45.4 +6.1 10 +43 +43 опасность
перегрева
1000.6 999.4
15 16.08 СЗ 1-4
{7}
н/о н/о +42.0 +7.5 13 +40 +40 очень
жарко
999.8 998.6
18 16.08 З 2-7
{7}
н/о н/о +40.1 -0.3 8 +36 +36 очень
жарко
1001.2 1000.0
21 16.08 С 1-3
{9}
н/о н/о +37.1 +1.6 11 +34 +34 очень
жарко
1000.8 999.6 +35.6 +46.6
00 17.08 С 3-10
{10}
н/о н/о +34.5 +6.8 18 +32 +32 жарко 1000.0 998.8
03 17.08 З 3-7
{9}
н/о н/о +33.5 +9.5 23 +33 +33 жарко 1001.0 999.8
06 17.08 З 1-5
{9}
н/о н/о +38.7 +8.5 16 +37 +37 очень
жарко
1001.7 1000.5
09 17.08 СВ 2-6
{6}
н/о н/о +42.3 +4.9 10 +39 +39 очень
жарко
1001.0 999.8
12 17.08 С 3-7
{11}
н/о н/о +43.6 +5.4 10 +41 +41 опасность
перегрева
999.0 997.8
15 17.08 ЮВ 3-8
{9}
н/о н/о +40.9 +3.7 10 +38 +38 очень
жарко
998.7 997.5
18 17.08 С 2-5
{9}
н/о н/о +38.0 +4.0 12 +35 +35 очень
жарко
999.9 998.7
21 17.08 З 2-8
{9}
н/о н/о +35.7 +2.3 12 +32 +32 жарко 1000.1 998.9 +33.3 +44.1
00 18.08 З 2-6
{9}
н/о н/о +34.5 +3.3 14 +32 +32 жарко 1000.3 999.1
03 18.08 СВ 1-2
{7}
н/о н/о +34.0 +2.8 14 +31 +31 жарко 1001.2 1000.0
06 18.08 СЗ 2-4
{7}
н/о н/о +38.1 +2.7 11 +35 +35 очень
жарко
1002.4 1001.2
09 18.08 С 2-7
{7}
н/о н/о +43.3 +4.6 10 +40 +40 очень
жарко
1002.1 1000.9
12 18.08 В 3-5
{8}
н/о н/о +40.5 +11.0 17 +39 +39 очень
жарко
1001.0 999.8
15 18.08 Ю 2-6
{8}
н/о н/о +39.4 +6.3 13 +37 +37 очень
жарко
1001.2 1000.0
18 18.08 ЮЗ 2-3
{8}
н/о н/о +39.4 +6.2 13 +37 +37 очень
жарко
1002.9 1001.7
21 18.08 Ю 2-4
{6}
н/о н/о +36.5 +8.5 18 +35 +35 очень
жарко
1003.0 1001.8 +32.6 +43.5
00 19.08 Ю 1-2
{6}
н/о н/о +35.4 +5.9 16 +33 +33 жарко 1002.5 1001.3
03 19.08 Ю 1-2
{3}
н/о н/о +34.0 +9.9 23 +33 +33 жарко 1004.0 1002.8
06 19.08 ЮЗ 2-5
{5}
н/о н/о +39.5 +6.8 14 +37 +37 очень
жарко
1004.9 1003.7
09 19.08 СВ 3-6
{6}
н/о н/о +43.8 +7.3 11 +41 +41 опасность
перегрева
1004.5 1003.3
12 19.08 В 3-6
{8}
н/о н/о +42.4 +11.9 17 +42 +42 опасность
перегрева
1003.2 1002.0
15 19.08 В 1-2
{6}
н/о н/о +41.2 +7.9 14 +39 +39 очень
жарко
1003.3 1002.1
18 19.08 СВ 1-1
{6}
н/о н/о +37.6 +13.8 24 +38 +38 очень
жарко
1005.0 1003.8
21 19.08 З 1-3
{5}
н/о н/о +38.2 +6.2 14 +36 +36 очень
жарко
1004.6 1003.4 +32.2 +46.1

 

Местоположение метеостанции Кувейт Сити (Кувейт): широта 29.33 долгота 48.05 высота над уровнем моря 11 м.

В архиве по умолчанию представлена погода в Кувейт Сити за последнюю неделю. Архивные данные за месяц целиком и за предыдущие месяцы, начиная с января 2011 года, Вы можете получить, выбрав интересующий диапазон дат из раскрывающегося списка и нажав кнопку "Ввод!".


*Определитесь, кто Вы:
робот инопланетянин человек

Внимание! Время в таблицах - всемирное. Для получения местного времени необходимо прибавить поправку, которая равна 3 ч.

Смотрите также архив погоды в соседних городах и на ближайших метеорологических станциях:

Погода в Аль-Шуаиба (Кувейт) (5 км)
Погода на Экспериментальной ферме (Кувейт) (12 км)
Погода в Эль-Кувейте (Кувейт) (14 км)
Погода Остров Файлака (Кувейт) (27 км)
Погода в Сулайбии (Кувейт) (33 км)
Погода в Эль-Джахра (Кувейт) (37 км)
Погода на Метеостанции Sabriyah (Кувейт) (51 км)
Погода на Метеостанции Jal Aliyah (Кувейт) (55 км)
Погода в Порту Juluiah (Кувейт) (56 км)
Погода в Минагише (Кувейт) (58 км)

Пояснения к столбцам:

Ветер - указаны скорость ветра в м/с - средняя за 10 мин, порывы в срок и между сроками (в фигурных скобках) и направление, откуда дует ветер: С - северный, СВ - северо-восточный, В - восточный, ЮВ - юго-восточный, Ю - южный, ЮЗ - юго-западный, З - западный, СЗ - северо-западный.
Видимость - горизонтальная дальность видимости в метрах или километрах. При видимости от 1 до 10 км при отсутствии осадков обычно наблюдается дымка, при ухудшении видимости до 1 км и менее - туман. В сухую погоду видимость может ухудшаться дымом, пылью или мглою.
Явления - указаны атмосферные явления, наблюдавшиеся в срок или в последний час перед сроком; фигурными скобками обозначены явления, наблюдавшиеся между сроками (за 1-3 часа до срока); квадратными скобками обозначены град или гололедные отложения с указанием их диаметра в мм.
Облачность - указаны через наклонную черту общая и нижняя облачность в баллах и высота нижней границы облаков в метрах; квадратными скобками обозначены формы облаков: Ci - перистые, Cs - перисто-слоистые, Cc - перисто-кучевые, Ac - высококучевые, As - высокослоистые, Sc - слоисто-кучевые, Ns - слоисто-дождевые, Cu - кучевые, Cb - кучево-дождевые. Подробнее классификацию облаков см. в Атласе облаков (PDF).
T - Температура воздуха - температура, измеренная на высоте 2 м над землей.
Td - Температура точки росы - температура, при понижении до которой содержащийся в воздухе водяной пар достигнет насыщения.
f - Относительная влажность воздуха - влажноcть воздуха, измеренная на высоте 2 м над землей.
Te - Эффективная температура - температура, которую ощущает одетый по сезону человек в тени. Характеристика душности погоды. При расчете учитывается влияние влажности воздуха и скорости ветра на теплоощущения человека.
Tes - Эффективная температура на солнце - температура, которую ощущает человек, с поправкой на солнечный нагрев. Характеристика знойности погоды. Зависит от высоты солнца над горизонтом, облачности и скорости ветра. Ночью, в пасмурную погоду, а также при ветре 12 м/с и более поправка равна нулю.
P - Атмосферное давление - приведенное к уровню моря атмосферное давление.
Po - Атмосферное давление - измеренное на уровне метеостанции атмосферное давление.
Tmin - Минимальная температура - минимум температуры воздуха на высоте 2 м над землей.
Tmax - Максимальная температура - максимум температуры воздуха на высоте 2 м над землей.
R - Количество осадков - Количество выпавших осадков за период времени, мм. При наведении курсора мыши на число - период времени, за который выпало указанное количество осадков.
R24 - Количество осадков - Количество выпавших осадков за 24 часа, мм.
S - Снежный покров - Высота снежного покрова, см. При наведении курсора мыши на число - состояние снежного покрова и степень покрытия местности в баллах.